This is the latest recevied weather packets stored in our database for station/object N7NIP. If no packets are shown the sender has not sent any weather packets the latest 10 day(s).
| Time | Temp. | Humidity | Pressure | Rain* | Wind** | Luminosity | Snow |
|---|---|---|---|---|---|---|---|
| 1778123175 | 12.78° C | 80% | 1034.6 hPa | 0 mm | - | 9 W/m² | - |
| 1778122873 | 12.78° C | 79% | 1034.8 hPa | 0 mm | - | 10 W/m² | - |
| 1778122570 | 12.78° C | 79% | 1034.7 hPa | 0 mm | - | 11 W/m² | - |
| 1778122267 | 12.78° C | 80% | 1034.6 hPa | 0 mm | - | 11 W/m² | - |
| 1778121965 | 12.78° C | 80% | 1034.6 hPa | 0 mm | - | 14 W/m² | - |
| 1778121662 | 12.78° C | 79% | 1034.6 hPa | 0 mm | - | 18 W/m² | - |
| 1778121357 | 12.78° C | 79% | 1034.5 hPa | 0 mm | - | 18 W/m² | - |
| 1778121055 | 12.78° C | 79% | 1034.5 hPa | 0 mm | - | 18 W/m² | - |
| 1778120751 | 12.78° C | 78% | 1034.4 hPa | 0 mm | - | 15 W/m² | - |
| 1778120446 | 12.78° C | 78% | 1034.7 hPa | 0 mm | - | 13 W/m² | - |
| 1778120143 | 13.33° C | 77% | 1034.5 hPa | 0 mm | - | 18 W/m² | - |
| 1778119839 | 13.33° C | 76% | 1034.3 hPa | 0 mm | - | 26 W/m² | - |
| 1778119537 | 13.33° C | 77% | 1034.4 hPa | 0 mm | - | 27 W/m² | - |
| 1778119234 | 13.33° C | 77% | 1034.5 hPa | 0 mm | - | 45 W/m² | - |
| 1778118932 | 13.33° C | 76% | 1034.3 hPa | 0 mm | - | 53 W/m² | - |
| 1778118629 | 13.33° C | 75% | 1034.4 hPa | 0 mm | - | 49 W/m² | - |
| 1778118326 | 13.89° C | 75% | 1034.3 hPa | 0 mm | - | 59 W/m² | - |
| 1778118021 | 13.89° C | 74% | 1034.7 hPa | 0 mm | - | 105 W/m² | - |
| 1778117718 | 13.89° C | 74% | 1034.4 hPa | 0 mm | - | 117 W/m² | - |
| 1778117416 | 13.89° C | 74% | 1034.4 hPa | 0 mm | - | 76 W/m² | - |
| 1778117113 | 13.89° C | 74% | 1034.3 hPa | 0 mm | - | 120 W/m² | - |
| 1778116809 | 13.89° C | 75% | 1034.5 hPa | 0 mm | - | 161 W/m² | - |
| 1778116506 | 13.89° C | 73% | 1034.3 hPa | 0 mm | - | 126 W/m² | - |
| 1778116202 | 13.89° C | 76% | 1034.5 hPa | 0 mm | - | 153 W/m² | - |
| 1778115896 | 13.89° C | 74% | 1034.4 hPa | 0 mm | - | 125 W/m² | - |
* Rain latest hour (hover to see other rain measurements)
** Current wind speed in m/s (hover to see current wind gust speed)